Location: Beadle
(51.4667°N, 109.0000°W)
Time: 12:21:01
(UTC+00:00)

Envisat - Pass Details

Date: 18 January 2022
Orbit: 764 x 765 km, 98.2° (Epoch: 22 May)

Event Time Altitude Azimuth Distance (km) Brightness Sun altitude
Rises 10:54:59 0° 26° (NNE) 3,243 6.7 -39.2°
Reaches altitude 10° 10:58:05 10° 46° (NE) 2,311 6.1 -38.7°
Maximum altitude 11:01:27 18° 88° (E) 1,835 5.5 -38.2°
Drops below altitude 10° 11:04:48 10° 129° (SE) 2,299 5.8 -37.7°
Sets 11:07:52 0° 149° (SSE) 3,220 6.4 -37.3°
